Terug naar catalogus

DELTA 1 DEB

ActiefPO
NORAD 21444·DEBRIS·🇺🇸 United States

Gelanceerd Jun 12, 1975 vanaf Vandenberg Space Force Base

Loading…

Volgende Passages (komende 24 uur)

TLE

VersSource: Space-Track

Epoch: Sep 14, 2026, 00:22 UTC

1 21444U 75052EC  26257.01543492 -.00000264  00000-0 -68903-3 0  9997
2 21444  99.6877 159.6336 0263053 216.5572 277.8740 12.94953674668389

Volg DELTA 1 DEB in realtime met AllMySat

Download on the App Store